Regional Weather Roundup
Issued by NWS Goodland, KS

Home | Current Version | Previous Version | Text Only | Print | Product List | Glossary Off
Versions: 1 2 3 4 5 6 7 8 9 10 11 12 13 14 15 16 17 18 19 20 21 22 23 24 25 26 27 28 29 30 31 32 33 34 35 36 37 38 39 40 41 42 43 44 45 46 47 48 49 50

000
ASUS43 KGLD 050608
RWRGLD

GOODLAND FORECAST AREA HOURLY WEATHER ROUNDUP
NATIONAL WEATHER SERVICE GOODLAND KS
1200 AM MDT SAT SEP 05 2015

...OFFICIAL OBSERVATIONS...

CITY           SKY/WX    TMP DP  RH WIND       PRES   REMARKS
GOODLAND KS    CLOUDY    78  54  43 S21       29.90S
HILL CITY KS   CLEAR     82  61  48 S14G24    29.88S
IMPERIAL NEB   CLOUDY    80  55  42 SE13      29.84F
MCCOOK NEB     PTCLDY    83  58  42 S15G22    29.84F
AKRON CO       CLOUDY    70  56  61 CALM      29.91S
BURLINGTON CO  CLOUDY    79  47  32 S12       29.93R
LIMON CO       MOCLDY    71  49  45 SW7       29.98F
$$

...UNOFFICIAL OBSERVATIONS...

CITY           SKY/WX    TMP DP  RH WIND       PRES   REMARKS
COLBY KS       CLEAR     82  61  47 S18G29    29.91S
GOVE KS          N/A     81  32  17 MISG        N/A
LENORA KS        N/A     80  32  17 MISG        N/A
NORTON KS      CLEAR     79  55  44 SE13G18   29.87
SHARON SPRINGS   N/A     78  57  48 SE14G21     N/A
TRENTON NEB      N/A     80  32  17 S15         N/A
KIT CARSON CO    N/A     77  51  39 MISG        N/A
YUMA CO          N/A     71  55  56 CALM        N/A
$$


USA.gov is the U.S. government's official web portal to all federal, state and local government web resources and services.